When you browse on this site, cookies collect data to enhance your experience and personalize the content and advertising you see.
Visit our Privacy Policy to learn more. By continuing to use the site, you agree to this use of cookies and data.
  • In Romania
  • List of Countries
  • For 7 days
  • Water Temperature
  • Satellite Maps
  • Weather Map
  • Weather Widgets
  • user-avatar
    Login

    Hourly Weather Pastuchow

    Today, 25 May, Saturday

    Time Temperature Precipitation Wind Pressure Humidity
    00:00 +12°C° 0 mm 2 mps 740 mmHg 72%
    01:00 +12°C° 0 mm 2 mps 740 mmHg 73%
    02:00 +12°C° 0 mm 2 mps 740 mmHg 76%
    03:00 +12°C° 0 mm 2 mps 740 mmHg 78%
    04:00 +12°C° 0 mm 2 mps 740 mmHg 81%
    05:00 +13°C° 0 mm 2 mps 740 mmHg 78%
    06:00 +15°C° 0 mm 2 mps 740 mmHg 76%
    07:00 +17°C° 0 mm 2 mps 741 mmHg 74%
    08:00 +18°C° 0.5 mm 3 mps 741 mmHg 73%
    09:00 +19°C° 0.5 mm 3 mps 741 mmHg 72%
    10:00 +20°C° 0.5 mm 3 mps 741 mmHg 71%
    11:00 +20°C° 0.7 mm 3 mps 741 mmHg 70%
    12:00 +20°C° 0.7 mm 3 mps 741 mmHg 69%
    13:00 +20°C° 0.7 mm 3 mps 741 mmHg 68%
    14:00 +20°C° 0.5 mm 3 mps 741 mmHg 70%
    15:00 +20°C° 0.5 mm 3 mps 741 mmHg 71%
    16:00 +20°C° 0.5 mm 3 mps 741 mmHg 72%
    17:00 +19°C° 0.2 mm 2 mps 741 mmHg 76%
    18:00 +18°C° 0.2 mm 2 mps 741 mmHg 80%
    19:00 +17°C° 0.2 mm 2 mps 741 mmHg 83%
    20:00 +15°C° 0 mm 2 mps 741 mmHg 85%
    21:00 +14°C° 0 mm 2 mps 741 mmHg 87%
    22:00 +13°C° 0 mm 2 mps 742 mmHg 89%
    23:00 +12°C° 0 mm 2 mps 742 mmHg 91%

    Tomorrow, 26 May, Sunday

    Time Temperature Precipitation Wind Pressure Humidity
    00:00 +10°C° 0 mm 2 mps 742 mmHg 92%
    01:00 +9°C° 0 mm 2 mps 742 mmHg 93%
    02:00 +9°C° 0 mm 2 mps 742 mmHg 93%
    03:00 +9°C° 0 mm 1 mps 742 mmHg 93%
    04:00 +9°C° 0 mm 1 mps 741 mmHg 93%
    05:00 +11°C° 0 mm 1 mps 742 mmHg 89%
    06:00 +13°C° 0 mm 1 mps 742 mmHg 85%
    07:00 +14°C° 0 mm 1 mps 742 mmHg 81%
    08:00 +16°C° 0 mm 2 mps 742 mmHg 74%
    09:00 +18°C° 0 mm 2 mps 741 mmHg 66%
    10:00 +19°C° 0 mm 3 mps 741 mmHg 59%
    11:00 +20°C° 0 mm 3 mps 741 mmHg 58%
    12:00 +21°C° 0 mm 3 mps 741 mmHg 57%
    13:00 +21°C° 0 mm 3 mps 740 mmHg 55%
    14:00 +22°C° 0.1 mm 3 mps 740 mmHg 57%
    15:00 +22°C° 0.1 mm 4 mps 740 mmHg 59%
    16:00 +22°C° 0.1 mm 4 mps 739 mmHg 61%
    17:00 +21°C° 0.1 mm 3 mps 739 mmHg 67%
    18:00 +20°C° 0.1 mm 2 mps 739 mmHg 73%
    19:00 +18°C° 0.1 mm 2 mps 739 mmHg 78%
    20:00 +17°C° 0 mm 2 mps 739 mmHg 81%
    21:00 +16°C° 0 mm 2 mps 740 mmHg 83%
    22:00 +15°C° 0 mm 2 mps 740 mmHg 85%
    23:00 +14°C° 0 mm 2 mps 740 mmHg 86%

    Day after tomorrow, 27 May, Monday

    Time Temperature Precipitation Wind Pressure Humidity
    00:00 +14°C° 0 mm 2 mps 739 mmHg 87%
    01:00 +14°C° 0 mm 2 mps 739 mmHg 87%
    02:00 +12°C° 0 mm 3 mps 739 mmHg 88%
    03:00 +12°C° 0 mm 3 mps 738 mmHg 89%
    04:00 +12°C° 0 mm 3 mps 738 mmHg 89%
    05:00 +14°C° 0 mm 4 mps 738 mmHg 84%
    06:00 +17°C° 0 mm 4 mps 738 mmHg 79%
    07:00 +18°C° 0 mm 4 mps 738 mmHg 74%
    08:00 +20°C° 0 mm 4 mps 738 mmHg 68%
    09:00 +21°C° 0 mm 4 mps 738 mmHg 62%
    10:00 +22°C° 0 mm 4 mps 738 mmHg 56%
    11:00 +23°C° 0 mm 5 mps 738 mmHg 55%
    12:00 +25°C° 0 mm 5 mps 738 mmHg 53%
    13:00 +25°C° 0 mm 5 mps 737 mmHg 52%
    14:00 +25°C° 0.3 mm 5 mps 737 mmHg 57%
    15:00 +25°C° 0.3 mm 4 mps 737 mmHg 61%
    16:00 +23°C° 0.3 mm 4 mps 737 mmHg 66%
    17:00 +22°C° 0.7 mm 3 mps 737 mmHg 73%
    18:00 +20°C° 0.7 mm 3 mps 737 mmHg 80%
    19:00 +18°C° 0.7 mm 2 mps 737 mmHg 88%
    20:00 +18°C° 0.1 mm 1 mps 737 mmHg 89%
    21:00 +15°C° 0.1 mm 0 mps 737 mmHg 91%
    22:00 +14°C° 0.1 mm 0 mps 737 mmHg 92%
    23:00 +14°C° 0 mm 0 mps 737 mmHg 93%

    28 May, Tuesday

    Time Temperature Precipitation Wind Pressure Humidity
    00:00 +14°C° 0 mm 0 mps 737 mmHg 93%
    01:00 +15°C° 0 mm 1 mps 736 mmHg 94%
    02:00 +15°C° 0.8 mm 1 mps 736 mmHg 95%
    03:00 +15°C° 0.8 mm 1 mps 736 mmHg 96%
    04:00 +15°C° 0.8 mm 1 mps 736 mmHg 98%
    05:00 +15°C° 2.5 mm 1 mps 736 mmHg 98%
    06:00 +15°C° 2.5 mm 2 mps 736 mmHg 98%
    07:00 +15°C° 2.5 mm 2 mps 736 mmHg 98%
    08:00 +14°C° 2.8 mm 2 mps 736 mmHg 98%
    09:00 +13°C° 2.8 mm 3 mps 736 mmHg 98%
    10:00 +13°C° 2.8 mm 4 mps 736 mmHg 97%
    11:00 +13°C° 1.6 mm 4 mps 736 mmHg 97%
    12:00 +13°C° 1.6 mm 4 mps 736 mmHg 96%
    13:00 +12°C° 1.6 mm 5 mps 735 mmHg 96%
    14:00 +12°C° 0.5 mm 5 mps 736 mmHg 96%
    15:00 +11°C° 0.5 mm 6 mps 736 mmHg 95%
    16:00 +11°C° 0.5 mm 6 mps 736 mmHg 95%
    17:00 +11°C° 0.8 mm 6 mps 736 mmHg 96%
    18:00 +12°C° 0.8 mm 5 mps 736 mmHg 96%
    19:00 +12°C° 0.8 mm 5 mps 737 mmHg 97%
    20:00 +12°C° 0.5 mm 4 mps 737 mmHg 96%
    21:00 +12°C° 0.5 mm 4 mps 738 mmHg 96%
    22:00 +11°C° 0.5 mm 4 mps 738 mmHg 96%
    23:00 +10°C° 0.3 mm 5 mps 739 mmHg 96%

    29 May, Wednesday

    Time Temperature Precipitation Wind Pressure Humidity
    00:00 +10°C° 0.3 mm 5 mps 739 mmHg 97%
    01:00 +10°C° 0.3 mm 5 mps 740 mmHg 97%
    02:00 +9°C° 0.1 mm 5 mps 740 mmHg 95%
    03:00 +8°C° 0.1 mm 5 mps 741 mmHg 94%
    04:00 +7°C° 0.1 mm 5 mps 741 mmHg 93%
    05:00 +7°C° 0 mm 5 mps 742 mmHg 90%
    06:00 +7°C° 0 mm 5 mps 743 mmHg 88%
    07:00 +8°C° 0 mm 5 mps 743 mmHg 85%
    08:00 +9°C° 0 mm 5 mps 744 mmHg 79%
    09:00 +10°C° 0 mm 5 mps 744 mmHg 74%
    10:00 +12°C° 0 mm 5 mps 744 mmHg 68%
    11:00 +13°C° 0 mm 5 mps 745 mmHg 66%
    12:00 +13°C° 0 mm 5 mps 745 mmHg 64%
    13:00 +14°C° 0 mm 5 mps 745 mmHg 62%
    14:00 +14°C° 0 mm 4 mps 746 mmHg 61%
    15:00 +14°C° 0 mm 4 mps 746 mmHg 60%
    16:00 +14°C° 0 mm 4 mps 746 mmHg 60%
    17:00 +13°C° 0 mm 3 mps 746 mmHg 65%
    18:00 +13°C° 0 mm 3 mps 747 mmHg 69%
    19:00 +13°C° 0 mm 2 mps 747 mmHg 74%
    20:00 +12°C° 0 mm 2 mps 748 mmHg 76%
    21:00 +10°C° 0 mm 1 mps 748 mmHg 78%
    22:00 +9°C° 0 mm 1 mps 749 mmHg 79%
    23:00 +9°C° 0 mm 1 mps 749 mmHg 82%

    30 May, Thursday

    Time Temperature Precipitation Wind Pressure Humidity
    00:00 +8°C° 0 mm 1 mps 749 mmHg 85%
    01:00 +7°C° 0 mm 1 mps 749 mmHg 87%
    02:00 +7°C° 0 mm 1 mps 749 mmHg 88%
    03:00 +5°C° 0 mm 0 mps 749 mmHg 88%
    04:00 +5°C° 0 mm 0 mps 749 mmHg 88%
    05:00 +7°C° 0 mm 0 mps 749 mmHg 83%
    06:00 +9°C° 0 mm 0 mps 749 mmHg 77%
    07:00 +10°C° 0 mm 0 mps 750 mmHg 72%
    08:00 +12°C° 0 mm 0 mps 749 mmHg 67%
    09:00 +14°C° 0 mm 1 mps 749 mmHg 62%
    10:00 +16°C° 0 mm 1 mps 749 mmHg 56%
    11:00 +18°C° 0 mm 1 mps 748 mmHg 54%
    12:00 +19°C° 0 mm 1 mps 748 mmHg 52%
    13:00 +18°C° 0 mm 0 mps 747 mmHg 50%
    14:00 +20°C° 0 mm 1 mps 747 mmHg 51%
    15:00 +20°C° 0 mm 1 mps 747 mmHg 53%
    16:00 +19°C° 0 mm 1 mps 746 mmHg 54%
    17:00 +18°C° 0 mm 1 mps 746 mmHg 61%
    18:00 +16°C° 0 mm 2 mps 746 mmHg 68%
    19:00 +15°C° 0 mm 2 mps 745 mmHg 75%
    20:00 +14°C° 0 mm 2 mps 746 mmHg 76%
    21:00 +12°C° 0 mm 2 mps 746 mmHg 78%
    22:00 +10°C° 0 mm 3 mps 746 mmHg 80%
    23:00 +10°C° 0 mm 3 mps 745 mmHg 77%
    Show more